(201420) = 2002 XG56

Discovered at Anderson Mesa on 2002-12-09 by LONEOS.

Orbit

Orbit type: Main Belt

Note: WebGL enabled browser required.

epoch2023-09-13.0
epoch JD2460200.5
perihelion date2018-11-27.97652
perihelion JD2458450.47652
argument of perihelion (°)80.15714
ascending node (°)296.22882
inclination (°)8.47253
eccentricity0.1133190
perihelion distance (AU)2.7547610
Tisserand w.r.t. Jupiter3.2
ΔV w.r.t. Earth (km/sec)10.7
semimajor axis (AU)3.1068229
mean anomaly (°)314.97274
mean daily motion (°/day)0.17998200
aphelion distance (AU)3.459
period (years)5.48
P-vector [x]0.94973754
P-vector [y]0.19672342
P-vector [z]0.24351282
Q-vector [x]-0.28377982
Q-vector [y]0.86944175
Q-vector [z]0.40440086
absolute magnitude15.08
phase slope0.15
uncertainty0
referenceMPEC 2024-A34
observations used647
oppositions16
arc length (days)8098
first opposition used2001
last opposition used2023
residual rms (arc-secs)0.81
perturbers coarse indicatorM-v
perturbers precise indicator003Ek
first observation date used2001-08-16.0
last observation date used2023-10-18.0
computer nameMPCLINUX
JD of orbit computation2456700.250531
perihelion JD uncertainty (days)3.2282E-04
argument of perihelion uncertainty (°)8.6813E-05
ascending node uncertainty (°)5.6471E-05
inclination uncertainty (°)8.8843E-06
eccentricity uncertainty 7.2403E-08
perihelion distance uncertainty (AU)2.3304E-07
Minimum Orbit Intersection Distances (in AU)
for orbit epoch: 2460200.5, reference: E2024-A34
Mercury2.41609
Venus2.04832
Earth1.77129
Mars1.35433
Jupiter2.0884
Saturn5.95002
Uranus15.0674
Neptune27.082

Observations

663 total observations over interval: 2001 08 16.22847 – 2023 10 18.223141
These data are available for download (format description).

Date (UT) J2000 RA J2000 Dec Magn Location Ref
2001 08 16.22847 20 42 08.06 -14 17 22.5   704 – Lincoln Laboratory ETS, New Mexico MPS 406902
2001 08 16.24097 20 42 07.41 -14 17 20.6   704 – Lincoln Laboratory ETS, New Mexico MPS 406902
2001 08 16.25347 20 42 06.94 -14 17 22.1   704 – Lincoln Laboratory ETS, New Mexico MPS 406902
2001 08 16.26588 20 42 06.32 -14 17 21.2   704 – Lincoln Laboratory ETS, New Mexico MPS 406902
2002 10 05.35161 03 42 20.48 +31 03 20.5 20.4   704 – Lincoln Laboratory ETS, New Mexico MPS 83090
2002 10 05.36750 03 42 20.20 +31 03 22.5 20.4   704 – Lincoln Laboratory ETS, New Mexico MPS 83090
2002 10 05.39917 03 42 19.66 +31 03 23.7 20.2   704 – Lincoln Laboratory ETS, New Mexico MPS 83090
2002 11 06.24795 03 22 51.98 +30 40 27.1 18.9   704 – Lincoln Laboratory ETS, New Mexico MPS 83090
2002 11 06.26468 03 22 51.04 +30 40 24.1 19.2   704 – Lincoln Laboratory ETS, New Mexico MPS 83090
2002 11 06.28199 03 22 50.08 +30 40 20.6 19.5   704 – Lincoln Laboratory ETS, New Mexico MPS 83090
2002 11 06.29890 03 22 49.12 +30 40 17.4 19.1   704 – Lincoln Laboratory ETS, New Mexico MPS 83090
2002 11 06.31592 03 22 48.15 +30 40 13.5 19.4   704 – Lincoln Laboratory ETS, New Mexico MPS 83090
2002 11 15.24626 03 14 45.54 +30 04 33.3 18.7   704 – Lincoln Laboratory ETS, New Mexico MPS 83090
2002 11 15.26331 03 14 44.53 +30 04 28.3 18.8   704 – Lincoln Laboratory ETS, New Mexico MPS 83090
2002 11 15.28052 03 14 43.56 +30 04 23.4 19.2   704 – Lincoln Laboratory ETS, New Mexico MPS 83090
2002 11 15.29771 03 14 42.66 +30 04 18.9 19.2   704 – Lincoln Laboratory ETS, New Mexico MPS 83090
2002 11 15.31478 03 14 41.65 +30 04 14.4 19.0   704 – Lincoln Laboratory ETS, New Mexico MPS 83090
2002 12 05.21723 02 58 42.78 +28 14 27.1 18.8   704 – Lincoln Laboratory ETS, New Mexico MPS 71679
2002 12 05.23313 02 58 42.24 +28 14 21.2 19.7   704 – Lincoln Laboratory ETS, New Mexico MPS 71679
2002 12 05.24863 02 58 41.67 +28 14 15.9 19.0   704 – Lincoln Laboratory ETS, New Mexico MPS 71679
2002 12 05.26391 02 58 41.00 +28 14 09.3 19.1   704 – Lincoln Laboratory ETS, New Mexico MPS 71679
2002 12 05.27945 02 58 40.45 +28 14 04.7 19.5   704 – Lincoln Laboratory ETS, New Mexico MPS 71679
2002 12 09.21863 02 56 19.52 +27 50 30.2 19.0 R 699 – Lowell Observatory-LONEOS MPS 68434
2002 12 09.23480 02 56 18.83 +27 50 25.2   699 – Lowell Observatory-LONEOS MPS 68434
2002 12 09.25098 02 56 18.39 +27 50 18.9   699 – Lowell Observatory-LONEOS MPS 68434
2002 12 09.26714 02 56 17.71 +27 50 13.9   699 – Lowell Observatory-LONEOS MPS 68434
2002 12 12.18900 02 54 47.60 +27 32 58.2 18.9   644 – Palomar Mountain/NEAT MPS 68434
2002 12 12.21125 02 54 46.91 +27 32 50.3 18.9   644 – Palomar Mountain/NEAT MPS 68434
2002 12 12.23191 02 54 46.30 +27 32 43.1 18.9   644 – Palomar Mountain/NEAT MPS 68434
2002 12 14.21365 02 53 52.34 +27 21 11.6 19.1   704 – Lincoln Laboratory ETS, New Mexico MPS 71679
2002 12 14.22808 02 53 51.94 +27 21 07.7 19.0   704 – Lincoln Laboratory ETS, New Mexico MPS 71679
2002 12 14.24268 02 53 51.64 +27 21 02.4 19.6   704 – Lincoln Laboratory ETS, New Mexico MPS 71679
2002 12 14.25722 02 53 51.24 +27 20 57.4 19.0   704 – Lincoln Laboratory ETS, New Mexico MPS 71679
2002 12 14.27214 02 53 50.76 +27 20 52.0 19.0   704 – Lincoln Laboratory ETS, New Mexico MPS 71679
2005 05 01.17035 12 45 31.36 -17 35 00.2 20.1   644 – Palomar Mountain/NEAT MPS 217741
2005 05 01.19494 12 45 30.50 -17 34 52.6 20.0   644 – Palomar Mountain/NEAT MPS 217741
2005 05 01.21578 12 45 29.75 -17 34 45.9 19.7   644 – Palomar Mountain/NEAT MPS 217741
2007 09 13.27569 23 54 37.29 +12 05 08.1 19.1 V 703 – Catalina Sky Survey MPS 217741
2007 09 13.28383 23 54 36.90 +12 05 07.1 18.9 V 703 – Catalina Sky Survey MPS 217741
2007 09 13.29202 23 54 36.54 +12 05 05.8 18.8 V 703 – Catalina Sky Survey MPS 217741
2007 09 13.30020 23 54 36.14 +12 05 04.2 18.8 V 703 – Catalina Sky Survey MPS 217741
2007 09 18.28270 23 50 42.88 +11 52 02.3 18.2   704 – Lincoln Laboratory ETS, New Mexico MPS 217741
2007 09 18.30546 23 50 41.78 +11 51 57.9 18.5   704 – Lincoln Laboratory ETS, New Mexico MPS 217741
2007 09 18.31683 23 50 41.22 +11 51 56.4 18.2   704 – Lincoln Laboratory ETS, New Mexico MPS 217741
2007 09 18.32852 23 50 40.63 +11 51 53.9 18.5   704 – Lincoln Laboratory ETS, New Mexico MPS 217741
2007 09 24.30764 23 45 56.29 +11 31 41.1 19.0   704 – Lincoln Laboratory ETS, New Mexico MPS 217741
2007 09 24.31982 23 45 55.67 +11 31 38.8 18.4   704 – Lincoln Laboratory ETS, New Mexico MPS 217741
2007 09 24.33197 23 45 55.12 +11 31 35.6 18.6   704 – Lincoln Laboratory ETS, New Mexico MPS 217741
2007 10 08.15987 23 35 42.03 +10 31 41.8 18.5 V 703 – Catalina Sky Survey MPS 218558
2007 10 08.16632 23 35 41.71 +10 31 39.1 19.0 V 703 – Catalina Sky Survey MPS 218558
2007 10 08.17274 23 35 41.42 +10 31 38.2 18.5 V 703 – Catalina Sky Survey MPS 218558
2007 10 08.17917 23 35 41.20 +10 31 36.1 18.6 V 703 – Catalina Sky Survey MPS 218558
2007 10 09.19488 23 35 01.22 +10 26 46.3 18.9 r 699 – Lowell Observatory-LONEOS MPS 218558
2007 10 09.21589 23 35 00.39 +10 26 39.9   699 – Lowell Observatory-LONEOS MPS 218558
2007 10 09.23692 23 34 59.54 +10 26 34.6   699 – Lowell Observatory-LONEOS MPS 218558
2007 10 09.25795 23 34 58.70 +10 26 27.9   699 – Lowell Observatory-LONEOS MPS 218558
2007 10 19.20741 23 29 26.01 +09 39 21.0 18.9 V 703 – Catalina Sky Survey MPS 222453
2007 10 19.21618 23 29 25.72 +09 39 18.9 19.1 V 703 – Catalina Sky Survey MPS 222453
2007 10 19.22494 23 29 25.58 +09 39 16.3 19.2 V 703 – Catalina Sky Survey MPS 222453
2007 10 19.23363 23 29 25.26 +09 39 13.9 18.9 V 703 – Catalina Sky Survey MPS 222453
2007 10 20.20030 23 28 59.33 +09 34 47.8 18.7   704 – Lincoln Laboratory ETS, New Mexico MPS 222453
2007 10 20.22352 23 28 58.69 +09 34 42.0 19.0   704 – Lincoln Laboratory ETS, New Mexico MPS 222453
2007 10 20.24667 23 28 58.02 +09 34 35.0 19.6   704 – Lincoln Laboratory ETS, New Mexico MPS 222453
2007 11 01.82320 23 25 17.33 +08 42 36.8 18.8 R 106 – Crni Vrh MPS 223377
2007 11 01.83282 23 25 17.18 +08 42 34.5 18.9 R 106 – Crni Vrh MPS 223377
2007 11 01.84242 23 25 17.14 +08 42 31.9 18.8 R 106 – Crni Vrh MPS 223377
2007 11 01.85204 23 25 16.98 +08 42 30.3 18.7 R 106 – Crni Vrh MPS 223377
2007 12 16.07221 23 41 17.17 +08 09 45.4 19.3   704 – Lincoln Laboratory ETS, New Mexico MPS 231312
2007 12 16.11137 23 41 19.00 +08 09 50.5 19.6   704 – Lincoln Laboratory ETS, New Mexico MPS 231312
2007 12 16.12435 23 41 19.59 +08 09 52.4 19.9   704 – Lincoln Laboratory ETS, New Mexico MPS 231312
2008 11 01.37332 07 11 47.58 +27 23 41.2 20.1 V G96 – Mt. Lemmon Survey MPS 263109
2008 11 01.38224 07 11 47.72 +27 23 40.7 20.0 V G96 – Mt. Lemmon Survey MPS 263109
2008 11 01.39119 07 11 47.79 +27 23 40.7 20.2 V G96 – Mt. Lemmon Survey MPS 263109
2008 11 01.40016 07 11 47.90 +27 23 40.2 20.2 V G96 – Mt. Lemmon Survey MPS 263109
2008 11 24.48360 07 09 40.79 +27 13 41.9   691 – Steward Observatory, Kitt Peak-Spacewatch MPS 266402
2008 11 24.50124 07 09 40.34 +27 13 41.3   691 – Steward Observatory, Kitt Peak-Spacewatch MPS 266402
2008 11 24.51634 07 09 39.94 +27 13 41.4   691 – Steward Observatory, Kitt Peak-Spacewatch MPS 266402
2008 12 06.45679 07 03 01.69 +27 10 10.8   691 – Steward Observatory, Kitt Peak-Spacewatch MPS 268784
2008 12 06.46692 07 03 01.31 +27 10 10.5   691 – Steward Observatory, Kitt Peak-Spacewatch MPS 268784
2008 12 06.47449 07 03 00.95 +27 10 10.0   691 – Steward Observatory, Kitt Peak-Spacewatch MPS 268784
2008 12 06.48461 07 03 00.53 +27 10 09.8   691 – Steward Observatory, Kitt Peak-Spacewatch MPS 268784
2008 12 06.49219 07 03 00.18 +27 10 09.4   691 – Steward Observatory, Kitt Peak-Spacewatch MPS 268784
2008 12 06.50232 07 02 59.75 +27 10 09.3   691 – Steward Observatory, Kitt Peak-Spacewatch MPS 268784
2008 12 30.12964 06 42 19.16 +26 50 49.1 19.4 V 691 – Steward Observatory, Kitt Peak-Spacewatch MPS 271701
2008 12 30.14776 06 42 18.17 +26 50 48.4 19.4 V 691 – Steward Observatory, Kitt Peak-Spacewatch MPS 271701
2008 12 30.16588 06 42 17.10 +26 50 47.1 19.5 V 691 – Steward Observatory, Kitt Peak-Spacewatch MPS 271701
2008 12 30.16871 06 42 16.97 +26 50 45.6 19.2 V 691 – Steward Observatory, Kitt Peak-Spacewatch MPS 271701
